Regional Weather Roundup
Issued by NWS

Home | Current Version | Previous Version | Graphics & Text | Print | Product List | Glossary Off
Versions: 1 2 3 4 5 6 7 8 9 10 11 12 13 14 15 16 17 18 19 20 21 22 23 24 25 26 27 28 29 30 31 32 33 34 35 36 37 38 39 40 41 42 43 44 45 46 47 48 49 50

000
ASUS43 KTOP 172259
RWRKS

WEATHER ROUNDUP FOR KANSAS
NATIONAL WEATHER SERVICE GOODLAND KS
600 PM CDT FRI APR 17 2015

NOTE:  "FAIR" INDICATES FEW OR NO CLOUDS BELOW 12,000 FEET WITH NO
SIGNIFICANT WEATHER AND/OR OBSTRUCTIONS TO VISIBILITY.

KSZ001>006-013>018-027>032-041>047-180000-
NORTHWEST KANSAS

CITY           SKY/WX    TMP DP  RH WIND       PRES   REMARKS
GOODLAND       MOSUNNY   65  46  50 SE12      29.92S
HAYS           MOSUNNY   72  52  49 SE16      29.93S
HILL CITY      PTSUNNY   69  51  52 SE12      29.94R
RUSSELL        PTSUNNY   71  53  52 SE14      29.92S
$$

KSZ061>065-074>080-084>089-180000-
SOUTHWEST KANSAS

CITY           SKY/WX    TMP DP  RH WIND       PRES   REMARKS
DODGE CITY     LGT RAIN  66  55  67 SE18      29.92R
ELKHART          N/A    N/A N/A N/A MISG        N/A
GARDEN CITY    PTSUNNY   65  53  65 E14       29.88F
GREAT BEND     PTSUNNY   70  55  60 SE8       29.93S
LIBERAL        SUNNY     72  46  40 S18G29    29.90F
$$

KSZ066>073-081>083-090>101-180000-
SOUTHEAST KANSAS

CITY           SKY/WX    TMP DP  RH WIND       PRES   REMARKS
CHANUTE        PTSUNNY   73  61  65 S7        29.96R
COFFEYVILLE    CLOUDY    75  62  64 S7        29.94R
HUTCHINSON     PTSUNNY   75  55  49 SE9       29.93F
MEDICINE LODGE   N/A     72  57  59 SE12G20   29.93R
NEWTON         CLOUDY    70  55  60 SE8       29.97S
PARSONS        CLOUDY    74  62  66 S6        29.96R
WICHITA INTL   CLOUDY    72  58  61 S12       29.95R
WICHITA JABRA  CLOUDY    72  56  57 S9        29.95R
WINFIELD       CLOUDY    71  60  68 MISG      29.96S
$$

KSZ007>012-019>026-033>040-048>060-102>105-180000-
NORTHEAST KANSAS

CITY           SKY/WX    TMP DP  RH WIND       PRES   REMARKS
EMPORIA        CLOUDY    72  58  61 S10       29.95R
LAWRENCE       CLOUDY    73  59  61 S7        29.97R
MANHATTAN      CLOUDY    74  56  53 SE8       29.95
OLATHE IND     CLOUDY    74  58  57 S9        29.98R
OLATHE EXE     CLOUDY    73  57  57 S9        29.97R
SALINA         SUNNY     75  56  51 SE8       29.95R
TOPEKA BILLARD PTSUNNY   74  59  59 SE7       29.97R
TOPEKA FORBES  PTSUNNY   75  57  53 SE10      29.96R
$$


USA.gov is the U.S. government's official web portal to all federal, state and local government web resources and services.